sat.trackr.live / text

‹ back to catalog

STARLINK-35526

NORAD 65931 · 2025-225X

PAYLOAD ACTIVE UNKNOWN

§ Identity

Operator
Country
US
Launch date
2025-10-08
Launch site
AFWTR
Launch vehicle
Mass (kg)
RCS (m²)

Purposes: comms

External: N2YO · Heavens-Above · Gunter

§ Orbital elements

Epoch: 2026-05-25T01:46:31.330272Z

Period
94.11 min
Inclination
53.1592°
Eccentricity
0.0001248
Mean motion
15.30204856 rev/d
Perigee alt
474.3 km
Apogee alt
476.1 km
Semi-major
6,853.3 km
B*
5.0508e-4
RAAN
170.8233°
Arg perigee
91.7741°
Mean anomaly
268.3403°
Rev number
3,610

§ Raw data

STARLINK-355261 65931U 25225X   26145.07397373  .00014631  00000+0  50508-3 0  99922 65931  53.1592 170.8233 0001248  91.7741 268.3403 15.30204856 36109

JSON: /api/v1/satellites/65931 · /tle

For live sub-satellite position, see the globe view (requires WebGL).

§ Visibility from observer

Set your observer location to see the next 7 days of passes ≥ 10°. The values pass through the URL so the page stays shareable.

No JS? Fill the form by hand. The geolocation button needs JavaScript.